{"data":{"norad_id":23712,"intl_designator":"1995-060A","name":"USA 115 (MILSTAR-1 2)","alt_names":[],"object_type":"PAYLOAD","status":"ACTIVE","operator":null,"country":"US","launch_date":"1995-11-06","launch_site_code":"AFETR","launch_vehicle":null,"mission":null,"orbit_class":"UNKNOWN","rcs_meters":null,"size_class":null,"mass_kg":null,"dimensions":null,"purposes":["comms"],"wikipedia_slug":null,"has_3d_model":false,"image_url":null,"decayed_at":null,"tle_current":{"epoch":"2026-09-19T22:03:58.859136Z","epoch_age_seconds":61358,"freshness":"FRESH","line1":"1 23712U 95060A   26262.91943124 -.00000201  00000+0  00000+0 0  9998","line2":"2 23712  14.1068   3.0284 0006264 158.0254  78.7956  1.00275330 33837","mean_motion":1.0027533,"eccentricity":0.0006264,"inclination_deg":14.1068,"raan_deg":3.0284,"arg_perigee_deg":158.0254,"mean_anomaly_deg":78.7956,"bstar":0,"rev_number":3383,"period_min":1436.0461341788,"perigee_km":35759.189832674,"apogee_km":35812.012563889,"semimajor_km":42163.738198281,"source":"CELESTRAK","updated_at":"2026-09-20T09:00:35.115812Z"}}}